Dallas Addison, TX

3:19 PM CST on January 20, 2018 (GMT -0600)
Addison

Weather History for KADS - November, 2012

Change the Weather History Date:

Thursday, November 8, 2012

  Actual Average Record
Temperature  
Mean Temperature 66 °F -  
Max Temperature 78 °F 65 °F 86 °F (2005)
Min Temperature 55 °F 50 °F 35 °F (2000)
Cooling Degree Days 2    
Growing Degree Days 16 (Base 50)    
Moisture  
Dew Point 45 °F    
Average Humidity 49    
Maximum Humidity 64    
Minimum Humidity 34    
Precipitation  
Precipitation 0.00 in - - ()
Sea Level Pressure  
Sea Level Pressure 30.04 in    
Wind  
Wind Speed 12 mph (SSE)    
Max Wind Speed 21 mph    
Max Gust Speed 34 mph    
Visibility 12 miles    
Events      
Averages and records for this station are not official NWS values.
T = Trace of Precipitation, MM = Missing Value Source: NWS Daily Summary

Daily Weather History Graph

Daily Weather History Graph

Search for Another Location

Airport or City:

Trip Planner

Search our weather history database for the weather conditions in past years. The results will help you decide how hot, cold, wet, or windy it might be!

Date:

Astronomy

Nov. 08, 2012 Rise Set
Actual Time 6:51 AM CST 5:29 PM CST
Civil Twilight 6:26 AM CST 5:55 PM CST
Nautical Twilight 5:56 AM CST 6:25 PM CST
Astronomical Twilight 5:27 AM CST 6:54 PM CST
Moon 1:06 AM CST (11/8) 1:55 PM CST (11/8)
Length of Visible Light 11h 29m
Length of Day
10h 37m
Waning Crescent, 32% of the Moon is Illuminated
Nov 8
Waning Crescent
Nov 13
New
Nov 20
First Quarter
Nov 28
Full
Dec 6
Last Quarter

Hourly Weather History & Observations

Time (CST) Temp. Dew Point Humidity Pressure Visibility Wind Dir Wind Speed Gust Speed Precip Events Conditions
12:15 AM 60.8 °F 32.0 °F 34% 30.08 in 10.0 mi SE 11.5 mph - N/A   Clear
12:35 AM 60.8 °F 32.0 °F 34% 30.08 in 10.0 mi SE 10.4 mph 16.1 mph N/A   Clear
12:55 AM 59.0 °F 33.8 °F 39% 30.08 in 10.0 mi SE 6.9 mph - N/A   Clear
1:15 AM 59.0 °F 33.8 °F 39% 30.08 in 10.0 mi SE 10.4 mph - N/A   Clear
1:35 AM 59.0 °F 33.8 °F 39% 30.08 in 10.0 mi SE 9.2 mph - N/A   Clear
1:55 AM 59.0 °F 33.8 °F 39% 30.08 in 10.0 mi SE 11.5 mph - N/A   Clear
2:15 AM 59.0 °F 33.8 °F 39% 30.08 in 10.0 mi SE 8.1 mph - N/A   Clear
2:35 AM 59.0 °F 33.8 °F 39% 30.08 in 10.0 mi SE 11.5 mph - N/A   Clear
2:55 AM 59.0 °F 35.6 °F 42% 30.08 in 10.0 mi SE 9.2 mph - N/A   Clear
3:15 AM 57.2 °F 35.6 °F 44% 30.07 in 10.0 mi SE 8.1 mph - N/A   Clear
3:35 AM 57.2 °F 35.6 °F 44% 30.07 in 10.0 mi SE 9.2 mph - N/A   Clear
3:55 AM 57.2 °F 35.6 °F 44% 30.07 in 10.0 mi SE 10.4 mph - N/A   Clear
4:15 AM 57.2 °F 35.6 °F 44% 30.08 in 10.0 mi SE 9.2 mph - N/A   Clear
4:35 AM 55.4 °F 35.6 °F 47% 30.08 in 10.0 mi SE 8.1 mph - N/A   Clear
4:55 AM 55.4 °F 35.6 °F 47% 30.09 in 10.0 mi SE 9.2 mph - N/A   Clear
5:47 AM 57.2 °F 39.2 °F 51% 30.09 in 13.0 mi SE 11.5 mph 17.3 mph N/A   Clear
6:47 AM 55.4 °F 39.2 °F 54% 30.10 in 13.0 mi SE 10.4 mph - N/A   Clear
7:51 AM 57.2 °F 42.8 °F 59% 30.11 in 15.0 mi SE 12.7 mph 17.3 mph N/A   Clear
8:48 AM 62.6 °F 48.2 °F 59% 30.12 in 15.0 mi SSE 16.1 mph 21.9 mph N/A   Clear
9:47 AM 64.4 °F 51.8 °F 64% 30.12 in 15.0 mi South 15.0 mph 25.3 mph N/A   Clear
10:50 AM 69.8 °F 55.4 °F 60% 30.10 in 13.0 mi South 11.5 mph 19.6 mph N/A   Clear
11:47 AM 73.4 °F 55.4 °F 53% 30.07 in 13.0 mi SSE 16.1 mph 19.6 mph N/A   Clear
12:47 PM 77.0 °F 53.6 °F 44% 30.02 in 13.0 mi South 13.8 mph 32.2 mph N/A   Clear
1:47 PM 78.8 °F 50.0 °F 36% 29.99 in 15.0 mi South 20.7 mph 29.9 mph N/A   Partly Cloudy
2:56 PM 78.8 °F 51.8 °F 39% 29.97 in 13.0 mi South 20.7 mph 34.5 mph N/A   Scattered Clouds
3:48 PM 78.8 °F 53.6 °F 42% 29.97 in 15.0 mi South 17.3 mph 25.3 mph N/A   Mostly Cloudy
4:49 PM 77.0 °F 53.6 °F 44% 29.96 in 15.0 mi South 18.4 mph 25.3 mph N/A   Mostly Cloudy
6:47 PM 75.2 °F 55.4 °F 50% 29.98 in 20.0 mi SSE 17.3 mph 24.2 mph N/A   Mostly Cloudy
7:47 PM 73.4 °F 55.4 °F 53% 29.99 in 20.0 mi SSE 12.7 mph 26.5 mph N/A   Mostly Cloudy
8:47 PM 71.6 °F 55.4 °F 57% 30.00 in 20.0 mi SE 18.4 mph 26.5 mph N/A   Mostly Cloudy
9:15 PM 71.6 °F 53.6 °F 53% 30.00 in 10.0 mi SSE 16.1 mph 21.9 mph N/A   Clear
9:35 PM 69.8 °F 53.6 °F 56% 29.99 in 10.0 mi SSE 17.3 mph - N/A   Clear
9:47 PM 69.8 °F 55.4 °F 60% 30.00 in 20.0 mi SSE 17.3 mph 24.2 mph N/A   Scattered Clouds
9:55 PM 69.8 °F 53.6 °F 56% 29.99 in 10.0 mi South 18.4 mph 25.3 mph N/A   Clear
10:15 PM 69.8 °F 53.6 °F 56% 29.99 in 10.0 mi South 17.3 mph 24.2 mph N/A   Clear
10:35 PM 68.0 °F 53.6 °F 60% 30.00 in 10.0 mi SSE 13.8 mph 18.4 mph N/A   Clear
10:55 PM 68.0 °F 53.6 °F 60% 29.99 in 10.0 mi South 16.1 mph 19.6 mph N/A   Clear
11:15 PM 68.0 °F 53.6 °F 60% 29.99 in 10.0 mi South 16.1 mph 23.0 mph N/A   Clear
11:35 PM 68.0 °F 53.6 °F 60% 30.00 in 10.0 mi South 13.8 mph 21.9 mph N/A   Clear
11:55 PM 68.0 °F 53.6 °F 60% 30.00 in 10.0 mi South 13.8 mph 19.6 mph N/A   Clear